Roda de Ter - l'Esquerda





Hora UTC 06:20
Temperatura 11.7 ºC
Humitat 92.0 %
Pressió 1026.9 hPa
Pluja 0.0 mm
Velocitat vent 0.0 km/h
Direcció vent N

Dades diàries 2021-10-19



Hora UTC (hivern +1h; estiu +2h)
Temperatura (ºC) Humitat (%) Pressió (hPa) Velocitat vent (km/h) Precipitació (mm)
Hora UTC Aire Humitat Pressió Vel. Dir. Vel. Max Dir. Intent. màx 5 min.
00:05 13.8 89.0 1026.9 0.0 N 0.0 0.0
00:10 13.8 89.0 1026.9 1.6 N 3.2 0.0
00:15 13.9 89.0 1026.9 0.0 N 3.2 0.0
00:20 13.9 90.0 1026.9 0.0 N 3.2 0.0
00:25 13.9 89.0 1027.0 0.0 N 3.2 0.0
00:30 13.8 89.0 1026.8 0.0 N 3.2 0.0
00:35 13.7 89.0 1026.9 1.6 N 3.2 0.0
00:40 13.6 89.0 1027.0 3.2 N 3.2 0.0
00:45 13.6 89.0 1026.9 1.6 N 3.2 0.0
00:50 13.6 90.0 1026.9 1.6 N 3.2 0.0
00:55 13.6 90.0 1027.0 0.0 N 4.8 0.0
01:00 13.7 90.0 1027.0 0.0 N 4.8 0.0
01:05 13.7 90.0 1027.0 0.0 N 3.2 0.0
01:10 13.7 90.0 1027.0 0.0 N 1.6 0.0
01:15 13.7 90.0 1027.0 0.0 N 1.6 0.0
01:20 13.7 90.0 1027.0 0.0 N 0.0 0.0
01:25 13.8 90.0 1027.0 1.6 N 3.2 0.0
01:30 13.9 90.0 1027.0 1.6 N 3.2 0.0
01:35 13.9 90.0 1027.0 1.6 N 1.6 0.0
01:40 13.9 90.0 1027.0 0.0 N 1.6 0.0
01:45 13.8 90.0 1026.9 0.0 N 1.6 0.0
01:50 13.8 90.0 1027.0 0.0 N 0.0 0.0
01:55 13.8 90.0 1026.9 0.0 N 0.0 0.0
02:00 13.8 90.0 1027.0 0.0 N 0.0 0.0
02:05 13.8 90.0 1026.9 0.0 N 0.0 0.0
02:10 13.9 90.0 1026.9 0.0 N 0.0 0.0
02:15 13.8 90.0 1026.9 0.0 N 3.2 0.0
02:20 13.8 90.0 1026.9 1.6 N 3.2 0.0
02:25 13.8 90.0 1026.7 1.6 N 3.2 0.0
02:30 13.7 90.0 1026.9 3.2 N 3.2 0.0
02:35 13.7 90.0 1026.7 3.2 N 4.8 0.0
02:40 13.8 90.0 1026.7 1.6 N 4.8 0.0
02:45 13.8 90.0 1026.7 1.6 N 4.8 0.0
02:50 13.8 90.0 1026.7 1.6 N 4.8 0.0
02:55 13.8 90.0 1026.7 1.6 N 4.8 0.0
03:00 13.7 90.0 1026.6 0.0 N 4.8 0.0
03:05 13.7 90.0 1026.6 1.6 N 3.2 0.0
03:10 13.7 90.0 1026.7 1.6 N 3.2 0.0
03:15 13.6 90.0 1026.7 0.0 N 4.8 0.0
03:20 13.6 90.0 1026.7 3.2 N 4.8 0.0
03:25 13.4 90.0 1026.7 1.6 N 4.8 0.0
03:30 13.3 90.0 1026.7 0.0 N 3.2 0.0
03:35 13.1 90.0 1026.7 0.0 N 1.6 0.0
03:40 13.1 90.0 1026.7 0.0 N 1.6 0.0
03:45 12.9 90.0 1026.7 1.6 N 1.6 0.0
03:50 12.9 90.0 1026.7 1.6 N 3.2 0.0
03:55 13.0 91.0 1026.7 1.6 N 3.2 0.0
04:00 13.1 91.0 1026.7 0.0 N 3.2 0.0
04:05 13.0 91.0 1026.7 1.6 N 1.6 0.0
04:10 12.9 91.0 1026.7 1.6 N 3.2 0.0
04:15 12.8 91.0 1026.7 1.6 N 3.2 0.0
04:20 12.7 91.0 1026.7 1.6 N 3.2 0.0
04:25 12.7 91.0 1026.7 1.6 N 3.2 0.0
04:30 12.8 91.0 1026.7 0.0 N 3.2 0.0
04:35 12.7 91.0 1026.7 1.6 N 3.2 0.0
04:40 12.6 91.0 1026.6 0.0 N 1.6 0.0
04:45 12.5 91.0 1026.7 0.0 N 1.6 0.0
04:50 12.4 91.0 1026.7 0.0 N 1.6 0.0
04:55 12.4 91.0 1026.7 0.0 N 1.6 0.0
05:00 12.3 91.0 1026.7 0.0 N 0.0 0.0
05:05 12.2 91.0 1026.7 1.6 N 1.6 0.0
05:10 12.1 91.0 1026.8 0.0 N 1.6 0.0
05:15 12.0 92.0 1026.8 0.0 N 0.0 0.0
05:20 12.1 92.0 1026.7 1.6 N 1.6 0.0
05:25 12.1 92.0 1026.7 0.0 N 3.2 0.0
05:30 12.1 92.0 1026.7 0.0 N 3.2 0.0
05:35 12.0 92.0 1026.8 1.6 N 1.6 0.0
05:40 11.9 92.0 1026.7 0.0 N 1.6 0.0
05:45 11.7 91.0 1026.8 0.0 N 1.6 0.0
05:50 11.6 92.0 1026.8 0.0 N 1.6 0.0
05:55 11.4 92.0 1026.8 0.0 N 1.6 0.0
06:00 11.6 92.0 1026.9 0.0 N 0.0 0.0
06:05 11.8 92.0 1026.9 1.6 N 1.6 0.0
06:10 11.7 92.0 1026.9 1.6 N 3.2 0.0
06:15 11.7 92.0 1026.9 1.6 N 3.2 0.0
06:20 11.7 92.0 1026.9 0.0 N 1.6 0.0
Màxima 14.3 92.0 1027.0 3.2 N 4.8 0.0
Mínima 11.4 89.0 1026.6
Total 0.0